Date String (YYYY-MM-DD hh:mm:ss) UTC,Instrument flags,absolute air pressure of the measurement (hPa),sample flow rate (lpm),inlet stack bypass flow (lpm),air temperature of the measurement (°C),ambient temperature measured by the external sensor (°C),aerosol sample conditioner tube jacket temperature (°C),OPC LED temperature (°C),internal box temperature (°C),relative humidity of the measurement (%),span deviation,mass concentration of particles derived from Lorenz-Mie calculation of OPC scattering (μg/m³),mass concentration of particles derived from Lorenz-Mie calculation of OPC scattering (μg/m³),mass concentration of particles derived from Lorenz-Mie calculation of OPC scattering (μg/m³)
DateTimeUTC,F1_M11,P_M11,Q1_M11,Q2_M11,T1_M11,T2_M11,T3_M11,T4_M11,T5_M11,U1_M11,ZSPAN_M11,X0_M11,X2_M11,X1_M11
2023-06-14 05:00:00,SystemResetWarning,0829.1,4.99,000.00,030.1,028.5,000.0,038.6,031.7,23.9,0000.0,0004.18,0002.54,0001.88
2023-06-14 05:01:00,SystemResetWarning,0829.1,5.00,000.00,030.1,028.5,000.0,038.6,031.7,24.2,0000.0,0003.74,0002.44,0001.86
2023-06-14 05:02:00,SystemResetWarning,0829.1,5.00,000.00,030.1,028.5,000.0,038.6,031.7,24.3,0000.0,0003.36,0002.35,0001.84
2023-06-14 05:03:00,SystemResetWarning,0829.1,5.00,000.00,030.1,028.5,000.0,038.6,031.7,24.5,0000.0,0003.41,0002.36,0001.82
2023-06-14 05:04:00,SystemResetWarning,0829.1,5.00,000.00,030.1,028.5,000.0,038.6,031.6,24.8,0000.0,0003.33,0002.31,0001.81
2023-06-14 05:05:00,SystemResetWarning,0829.1,5.00,000.00,030.1,028.5,000.0,038.6,031.7,25.0,0000.0,0003.34,0002.30,0001.80
2023-06-14 05:06:00,SystemResetWarning,0829.1,5.00,000.00,030.1,028.5,000.0,038.6,031.6,25.2,0000.0,0003.39,0002.30,0001.79
2023-06-14 05:07:00,SystemResetWarning,0829.2,4.99,000.00,030.1,028.5,000.0,038.6,031.6,25.5,0000.0,0003.61,0002.31,0001.80
2023-06-14 05:08:00,SystemResetWarning,0829.2,4.99,000.00,030.1,028.5,000.0,038.6,031.6,25.3,0000.0,0003.84,0002.33,0001.80
2023-06-14 05:09:00,SystemResetWarning,0829.1,4.99,000.00,030.1,028.5,000.0,038.6,031.6,25.3,0000.0,0003.71,0002.32,0001.80
2023-06-14 05:10:00,SystemResetWarning,0829.2,5.00,000.00,030.1,028.5,000.0,038.6,031.6,25.2,0000.0,0003.79,0002.33,0001.80
2023-06-14 05:11:00,SystemResetWarning,0829.2,5.00,000.00,030.1,028.5,000.0,038.6,031.6,25.3,0000.0,0004.57,0002.31,0001.79
2023-06-14 05:12:00,SystemResetWarning,0829.2,5.00,000.00,030.1,028.5,000.0,038.6,031.6,25.4,0000.0,0005.24,0002.38,0001.80
2023-06-14 05:13:00,SystemResetWarning,0829.2,5.00,000.00,030.1,028.5,000.0,038.7,031.6,25.5,0000.0,0005.45,0002.42,0001.81
2023-06-14 05:14:00,SystemResetWarning,0829.2,5.00,000.00,030.1,028.5,000.0,038.7,031.6,25.7,0000.0,0005.45,0002.42,0001.82
2023-06-14 05:15:00,SystemResetWarning,0829.2,5.00,000.00,030.1,028.5,000.0,038.7,031.6,25.5,0000.0,0005.57,0002.43,0001.83
2023-06-14 05:16:00,SystemResetWarning,0829.2,5.00,000.00,030.1,028.5,000.0,038.7,031.6,25.5,0000.0,0005.74,0002.44,0001.84
2023-06-14 05:17:00,SystemResetWarning,0829.2,5.00,000.00,030.1,028.5,000.0,038.7,031.6,25.5,0000.0,0005.73,0002.44,0001.84
2023-06-14 05:18:00,SystemResetWarning,0829.2,5.00,000.00,030.1,028.5,000.0,038.7,031.7,25.6,0000.0,0005.62,0002.43,0001.84
2023-06-14 05:19:00,SystemResetWarning,0829.2,5.00,000.00,030.1,028.5,000.0,038.7,031.7,25.0,0000.0,0005.41,0002.41,0001.84
2023-06-14 05:20:00,SystemResetWarning,0829.2,5.01,000.00,030.1,028.5,000.0,038.7,031.6,24.3,0000.0,0005.62,0002.45,0001.86
2023-06-14 05:21:00,SystemResetWarning,0829.2,5.01,000.00,030.1,028.5,000.0,038.7,031.6,24.4,0000.0,0005.55,0002.43,0001.87
2023-06-14 05:22:00,SystemResetWarning,0829.2,5.00,000.00,030.1,028.5,000.0,038.7,031.6,24.4,0000.0,0005.01,0002.44,0001.89
2023-06-14 05:23:00,SystemResetWarning,0829.2,5.00,000.00,030.1,028.5,000.0,038.7,031.6,24.3,0000.0,0004.15,0002.39,0001.90
2023-06-14 05:24:00,SystemResetWarning,0829.2,5.01,000.00,030.1,028.5,000.0,038.7,031.6,23.4,0000.0,0003.93,0002.35,0001.91
2023-06-14 05:25:00,SystemResetWarning,0829.1,5.00,000.00,030.1,028.5,000.0,038.7,031.6,23.3,0000.0,0004.04,0002.40,0001.93
2023-06-14 05:26:00,SystemResetWarning,0829.1,4.99,000.00,030.1,028.5,000.0,038.7,031.6,23.4,0000.0,0004.05,0002.44,0001.96
2023-06-14 05:27:00,SystemResetWarning,0829.1,5.00,000.00,030.1,028.5,000.0,038.7,031.6,22.7,0000.0,0004.08,0002.47,0001.98
2023-06-14 05:28:00,SystemResetWarning,0829.1,4.99,000.00,030.1,028.5,000.0,038.7,031.6,22.7,0000.0,0004.58,0002.49,0002.00
2023-06-14 05:29:00,SystemResetWarning,0829.1,4.99,000.00,030.1,028.5,000.0,038.7,031.6,22.8,0000.0,0005.41,0002.45,0002.01
2023-06-14 05:30:00,SystemResetWarning,0829.1,4.99,000.00,030.1,028.5,000.0,038.7,031.6,23.0,0000.0,0005.33,0002.44,0002.02
2023-06-14 05:31:00,SystemResetWarning,0829.1,5.01,000.00,030.1,028.4,000.0,038.7,031.5,23.0,0000.0,0005.11,0002.41,0002.03
2023-06-14 05:32:00,SystemResetWarning,0829.1,4.99,000.00,030.1,028.4,000.0,038.7,031.5,22.7,0000.0,0005.12,0002.43,0002.03
2023-06-14 05:33:00,SystemResetWarning,0829.0,5.00,000.00,030.1,028.4,000.0,038.7,031.5,22.2,0000.0,0005.14,0002.48,0002.04
2023-06-14 05:34:00,SystemResetWarning,0829.0,4.99,000.00,030.1,028.4,000.0,038.7,031.5,22.1,0000.0,0005.36,0002.58,0002.06
2023-06-14 05:35:00,SystemResetWarning,0829.0,5.00,000.00,030.1,028.4,000.0,038.7,031.5,21.6,0000.0,0005.36,0002.59,0002.05
2023-06-14 05:36:00,SystemResetWarning,0829.0,5.00,000.00,030.1,028.4,000.0,038.7,031.5,21.5,0000.0,0005.37,0002.60,0002.06
2023-06-14 05:37:00,SystemResetWarning,0829.0,5.00,000.00,030.1,028.4,000.0,038.7,031.5,21.1,0000.0,0005.36,0002.63,0002.06
2023-06-14 05:38:00,SystemResetWarning,0829.0,5.00,000.00,030.1,028.4,000.0,038.7,031.5,21.4,0000.0,0005.12,0002.61,0002.07
2023-06-14 05:39:00,SystemResetWarning,0829.0,5.00,000.00,030.1,028.4,000.0,038.7,031.5,21.5,0000.0,0004.59,0002.61,0002.08
2023-06-14 05:40:00,SystemResetWarning,0829.0,5.00,000.00,030.1,028.3,000.0,038.7,031.5,21.6,0000.0,0003.68,0002.65,0002.10
2023-06-14 05:41:00,SystemResetWarning,0828.9,5.00,000.00,030.1,028.3,000.0,038.7,031.5,21.4,0000.0,0003.73,0002.70,0002.11
2023-06-14 05:42:00,SystemResetWarning,0829.0,5.00,000.00,030.1,028.3,000.0,038.7,031.5,21.5,0000.0,0003.89,0002.76,0002.13
2023-06-14 05:43:00,SystemResetWarning,0828.9,5.00,000.00,030.1,028.3,000.0,038.6,031.5,21.7,0000.0,0003.87,0002.75,0002.16
2023-06-14 05:44:00,SystemResetWarning,0828.8,5.00,000.00,030.1,028.3,000.0,038.6,031.5,22.5,0000.0,0003.87,0002.76,0002.20
2023-06-14 05:45:00,SystemResetWarning,0828.8,5.00,000.00,030.1,028.3,000.0,038.6,031.5,23.1,0000.0,0003.73,0002.72,0002.24
2023-06-14 05:46:00,SystemResetWarning,0828.7,4.99,000.00,030.1,028.3,000.0,038.6,031.5,23.4,0000.0,0004.32,0002.79,0002.29
2023-06-14 05:47:00,SystemResetWarning,0828.6,5.00,000.00,030.0,028.3,000.0,038.6,031.5,22.3,0000.0,0004.55,0002.80,0002.31
2023-06-14 05:48:00,SystemResetWarning,0828.7,5.00,000.00,030.0,028.2,000.0,038.6,031.4,21.7,0000.0,0004.36,0002.73,0002.30
2023-06-14 05:49:00,SystemResetWarning,0828.7,5.00,000.00,030.0,028.2,000.0,038.6,031.4,22.0,0000.0,0004.34,0002.72,0002.28
2023-06-14 05:50:00,SystemResetWarning,0828.6,4.99,000.00,030.0,028.1,000.0,038.6,031.4,22.8,0000.0,0004.38,0002.74,0002.29
2023-06-14 05:51:00,SystemResetWarning,0828.6,5.00,000.00,030.0,028.1,000.0,038.6,031.3,21.5,0000.0,0004.46,0002.75,0002.28
2023-06-14 05:52:00,SystemResetWarning,0828.6,5.00,000.00,029.9,028.1,000.0,038.6,031.3,19.8,0000.0,0004.38,0002.68,0002.23
2023-06-14 05:53:00,SystemResetWarning,0828.5,5.00,000.00,029.9,028.1,000.0,038.6,031.3,20.3,0000.0,0004.37,0002.62,0002.18
2023-06-14 05:54:00,SystemResetWarning,0828.4,5.00,000.00,029.9,028.0,000.0,038.6,031.2,20.6,0000.0,0004.51,0002.56,0002.12
2023-06-14 05:55:00,SystemResetWarning,0828.4,5.01,000.00,029.8,028.0,000.0,038.6,031.1,20.6,0000.0,0004.48,0002.51,0002.07
2023-06-14 05:56:00,SystemResetWarning,0828.4,5.00,000.00,029.8,027.9,000.0,038.6,031.1,21.6,0000.0,0004.42,0002.45,0002.00
2023-06-14 05:57:00,SystemResetWarning,0828.4,5.00,000.00,029.8,027.8,000.0,038.5,031.0,21.9,0000.0,0003.91,0002.32,0001.92
2023-06-14 05:58:00,SystemResetWarning,0828.4,5.00,000.00,029.7,027.8,000.0,038.5,030.8,22.1,0000.0,0003.36,0002.21,0001.85
2023-06-14 05:59:00,SystemResetWarning,0828.4,5.00,000.00,029.6,027.8,000.0,038.5,030.8,22.1,0000.0,0003.37,0002.17,0001.81
